This is the latest recevied weather packets stored in our database for station/object EA5CEE. If no packets are shown the sender has not sent any weather packets the latest 10 day(s).
| Time | Temp. | Humidity | Pressure | Rain* | Wind** | Luminosity | Snow |
|---|---|---|---|---|---|---|---|
| 1777534254 | 17.78° C | 87% | 1014.6 hPa | 0 mm | - | - | - |
| 1777533351 | 17.22° C | 88% | 1014.5 hPa | 0 mm | - | - | - |
| 1777532449 | 16.67° C | 89% | 1014.4 hPa | 0 mm | - | - | - |
| 1777531547 | 16.67° C | 90% | 1014.3 hPa | 0 mm | - | - | - |
| 1777530651 | 16.11° C | 91% | 1014.3 hPa | 0 mm | - | - | - |
| 1777529757 | 16.11° C | 93% | 1014.2 hPa | 0 mm | - | - | - |
| 1777528850 | 15.56° C | 94% | 1014 hPa | 0 mm | - | - | - |
| 1777527949 | 15.56° C | 95% | 1013.8 hPa | 0 mm | - | - | - |
| 1777527040 | 15° C | 94% | 1013.4 hPa | 0 mm | - | - | - |
| 1777526166 | 15° C | 94% | 1013.2 hPa | 0 mm | - | - | - |
| 1777525238 | 15° C | 94% | 1013 hPa | 0 mm | - | - | - |
| 1777524335 | 15° C | 91% | 1013 hPa | 0 mm | - | - | - |
| 1777523434 | 15.56° C | 89% | 1013 hPa | 0 mm | - | - | - |
| 1777522536 | 16.11° C | 87% | 1013 hPa | 0 mm | - | - | - |
| 1777521632 | 16.11° C | 86% | 1012.9 hPa | 0 mm | - | - | - |
| 1777520727 | 16.11° C | 86% | 1013 hPa | 0 mm | - | - | - |
| 1777519826 | 16.11° C | 87% | 1013 hPa | 0 mm | - | - | - |
| 1777518923 | 16.11° C | 87% | 1012.9 hPa | 0 mm | - | - | - |
| 1777518028 | 16.11° C | 87% | 1013 hPa | 0 mm | - | - | - |
| 1777517126 | 16.11° C | 87% | 1012.9 hPa | 0 mm | - | - | - |
| 1777516220 | 16.11° C | 87% | 1012.8 hPa | 0 mm | - | - | - |
| 1777515337 | 16.11° C | 87% | 1012.8 hPa | 0 mm | - | - | - |
| 1777514417 | 16.11° C | 88% | 1012.8 hPa | 0 mm | - | - | - |
| 1777513517 | 16.11° C | 89% | 1012.8 hPa | 0 mm | - | - | - |
| 1777512615 | 16.11° C | 89% | 1012.8 hPa | 0 mm | - | - | - |
* Rain latest hour (hover to see other rain measurements)
** Current wind speed in m/s (hover to see current wind gust speed)